sat.trackr.live / text

‹ back to catalog

STARLINK-35323

NORAD 66071 · 2025-235P

PAYLOAD ACTIVE UNKNOWN

§ Identity

Operator
Country
US
Launch date
2025-10-19
Launch site
AFETR
Launch vehicle
Mass (kg)
RCS (m²)

Purposes: comms

External: N2YO · Heavens-Above · Gunter

§ Orbital elements

Epoch: 2026-05-24T13:47:03.655968Z

Period
94.11 min
Inclination
53.1608°
Eccentricity
0.0000409
Mean motion
15.30194280 rev/d
Perigee alt
475.0 km
Apogee alt
475.5 km
Semi-major
6,853.4 km
B*
1.9986e-4
RAAN
252.5116°
Arg perigee
12.7893°
Mean anomaly
347.3118°
Rev number
3,454

§ Raw data

STARLINK-353231 66071U 25235P   26144.57434787  .00005564  00000+0  19986-3 0  99942 66071  53.1608 252.5116 0000409  12.7893 347.3118 15.30194280 34546

JSON: /api/v1/satellites/66071 · /tle

For live sub-satellite position, see the globe view (requires WebGL).

§ Visibility from observer

Set your observer location to see the next 7 days of passes ≥ 10°. The values pass through the URL so the page stays shareable.

No JS? Fill the form by hand. The geolocation button needs JavaScript.